Terug naar catalogus

STARLINK-32236

ActiefCommunicatieVLEO
NORAD 60418·PAYLOAD·🇺🇸 United States

Gelanceerd Aug 10, 2024 vanaf Cape Canaveral Space Force Station

Loading…

Volgende Passages (komende 24 uur)

TLE

VersSource: CelesTrak SupGP

Epoch: Sep 14, 2026, 15:03 UTC

1 60418C 24141W   26257.62756944 -.00019222  00000+0 -56792-3 0  2572
2 60418  53.1584  81.1922 0001178  89.1141 190.0441 15.34400399    19

Volg STARLINK-32236 in realtime met AllMySat

Download on the App Store